sat.trackr.live / text

‹ back to catalog

STARLINK-3670

NORAD 52106 · 2022-029U

PAYLOAD ACTIVE UNKNOWN

§ Identity

Operator
Country
US
Launch date
2022-03-19
Launch site
AFETR
Launch vehicle
Mass (kg)
RCS (m²)

Purposes: comms

External: N2YO · Heavens-Above · Gunter

§ Orbital elements

Epoch: 2026-05-25T03:48:13.116096Z

Period
95.44 min
Inclination
53.2139°
Eccentricity
0.0001559
Mean motion
15.08844681 rev/d
Perigee alt
538.7 km
Apogee alt
540.8 km
Semi-major
6,917.9 km
B*
-5.6448e-6
RAAN
105.8359°
Arg perigee
68.5761°
Mean anomaly
291.5397°
Rev number
23,219

§ Raw data

STARLINK-36701 52106U 22029U   26145.15848514 -.00000378  00000+0 -56448-5 0  99942 52106  53.2139 105.8359 0001559  68.5761 291.5397 15.08844681232191

JSON: /api/v1/satellites/52106 · /tle

For live sub-satellite position, see the globe view (requires WebGL).

§ Visibility from observer

Set your observer location to see the next 7 days of passes ≥ 10°. The values pass through the URL so the page stays shareable.

No JS? Fill the form by hand. The geolocation button needs JavaScript.